Regional Weather Roundup
Issued by NWS

Home | Current Version | Previous Version | Text Only | Print | Product List | Glossary Off
Versions: 1 2 3 4 5 6 7 8 9 10 11 12 13 14 15 16 17 18 19 20 21 22 23 24 25 26 27 28 29 30 31 32 33 34 35 36 37 38 39 40 41 42 43 44 45 46 47 48 49 50

000
ASUS45 KPSR 172300
RWRAZ

ARIZONA REGIONAL HOURLY WEATHER ROUNDUP
NATIONAL WEATHER SERVICE PHOENIX AZ
400 PM MST FRI APR 17 2015

NOTE: FAIR INDICATES FEW OR NO CLOUDS BELOW 12,000 FEET WITH NO
SIGNIFICANT WEATHER AND/OR OBSTRUCTIONS TO VISIBILITY.

AZZ001>003-036-180000-
NORTHWEST ARIZONA

CITY           SKY/WX    TMP DP  RH WIND       PRES   REMARKS
KINGMAN        MOSUNNY   72  20  14 N15G24    30.01F
$$

AZZ004>008-015-016-018-180000-
NORTH CENTRAL ARIZONA

CITY           SKY/WX    TMP DP  RH WIND       PRES   REMARKS
GRAND CANYON   PTSUNNY   51  25  36 N10G17    30.08S
WILLIAMS       CLOUDY    48  27  43 N13G20    30.15S
PRESCOTT       PTSUNNY   61  18  18 VRB7      30.02F
FLAGSTAFF      NOT AVBL
PAYSON         PTSUNNY   61   9  12 W10G16    30.04S
PAGE           CLOUDY    59  28  30 S6        29.99F
$$

AZZ009>014-017-180000-
NORTHEAST ARIZONA

CITY           SKY/WX    TMP DP  RH WIND       PRES   REMARKS
WINSLOW        NOT AVBL
SAINT JOHNS    SUNNY     57  17  21 W18G31    30.01F
WINDOW ROCK    CLOUDY    47  19  33 W17G23    30.03S
SHOW LOW       MOSUNNY   50  14  23 W9        30.06F
$$

AZZ023-180000-
GREATER PHOENIX AREA

CITY           SKY/WX    TMP DP  RH WIND       PRES   REMARKS
PHOENIX        MOSUNNY   79  21  11 W9G22     29.92F
GLENDALE       MOSUNNY   82  19   9 MISG      29.92F
DEER VALLEY    SUNNY     77  21  12 S16       29.91F
SCOTTSDALE     SUNNY     77  20  12 W12G20    29.94F
MESA-FALCON    MOSUNNY   77  18  10 SW9       29.94F
MESA-GATEWAY   MOSUNNY   75  19  12 NW8G18    29.96F
CHANDLER       MOSUNNY   77  16  10 W13       29.94F
$$

AZZ027-028-180000-
SOUTHWEST MARICOPA COUNTY AND PINAL COUNTY

CITY           SKY/WX    TMP DP  RH WIND       PRES   REMARKS
CASA GRANDE    SUNNY     77  21  12 SW12      29.94S
$$

AZZ503-504-507>509-180000-
SOUTHEAST ARIZONA

CITY           SKY/WX    TMP DP  RH WIND       PRES   REMARKS
TUCSON         SUNNY     75  14  10 NW9G21    30.00F
NOGALES        SUNNY     71  13  10 N8        30.01F
SAFFORD        SUNNY     73  11   9 NW14G26   29.94F
$$

AZZ020-021-025-026-031-180000-
SOUTHWEST ARIZONA

CITY           SKY/WX    TMP DP  RH WIND       PRES   REMARKS
YUMA           SUNNY     86  20   9 SW13      29.91F
$$

CAZ031-033-041-043-047-048-061-180000-
SOUTHERN CALIFORNIA

CITY           SKY/WX    TMP DP  RH WIND       PRES   REMARKS
DOWNTOWN L.A.  SUNNY     75  36  24 VRB6      29.96F
L.A. AIRPORT   SUNNY     70  47  43 W21G30    29.97F
SAN DIEGO      SUNNY     74  46  36 NW14G20   29.98F
BURBANK        SUNNY     83  28  13 SW9       29.94F
ONTARIO        SUNNY     84  19   9 SW16G24   29.95F
RIVERSIDE      SUNNY     84  22  10 W21G26    29.94F
PALM SPRINGS   SUNNY     90  12   5 SE6       29.89F
EL CENTRO NAS  SUNNY     87  19   8 E8        29.90F
IMPERIAL       SUNNY     86  18   8 CALM      29.89F
BLYTHE         SUNNY     85  19   9 VRB5      29.91F
$$

NVZ020-UTZ003-180000-
SOUTHERN NEVADA-UTAH

CITY           SKY/WX    TMP DP  RH WIND       PRES   REMARKS
LAS VEGAS      NOT AVBL
SALT LAKE CITY PTSUNNY   60  36  40 NW9       30.02F
$$

NMZ009-TXZ055-180000-
NEW MEXICO-WEST TEXAS

CITY           SKY/WX    TMP DP  RH WIND       PRES   REMARKS
ALBUQUERQUE    CLOUDY    51  18  27 S9G20     30.01S
EL PASO        MOSUNNY   71   2   6 W22G32    29.95F
$$


........................KEY........................
SKY/WX - SKY CONDITION/WEATHER
TMP    - TEMPERATURE IN FAHRENHEIT
DP     - DEW POINT IN FAHRENHEIT
RH     - RELATIVE HUMIDITY IN PERCENT
WIND   - DIRECTION AND SPEED IN MILES PER HOUR (MPH)
VRB    - VARIABLE WIND DIRECTION
PRES   - MEAN SEA LEVEL PRESSURE IN INCHES OF MERCURY
         F - FALLING PRESSURE   R - RISING PRESSURE
         S - STEADY PRESSURE
VSB    - VISIBILITY IN MILES
HX     - HEAT INDEX IN FAHRENHEIT
WCI    - WIND CHILL INDEX IN FAHRENHEIT
TC     - TEMPERATURE IN CELSIUS WHICH IS ALSO KNOWN AS
         TEMPERATURE IN CENTIGRADE
AFB    - AIR FORCE BASE
         LUKE AFB IS LUKE AIR FORCE BASE
         DAVIS-MONTHAN IS DAVIS-MONTHAN AIR FORCE BASE
NAS    - NAVAL AIR STATION
         EL CENTRO NAS IS EL CENTRO NAVAL AIR STATION
N/A    - NOT AVAILABLE




USA.gov is the U.S. government's official web portal to all federal, state and local government web resources and services.